Time,TemperatureF,DewpointF,PressureIn,WindDirection,WindDirectionDegrees,WindSpeedMPH,WindSpeedGustMPH,Humidity,HourlyPrecipIn,Conditions,Clouds,dailyrainin,SoftwareType,DateUTC
2013-08-05 00:01:00,62.8,56.1,29.98,WNW,297,0.0,0.0,79,0.00,,,0.00,meteohub,2013-08-05 05:01:00,
2013-08-05 00:06:00,62.8,56.1,29.98,WNW,296,0.0,0.0,79,0.00,,,0.00,meteohub,2013-08-05 05:06:00,
2013-08-05 00:11:00,62.8,56.5,29.97,WNW,296,0.0,0.0,80,0.00,,,0.00,meteohub,2013-08-05 05:11:00,
2013-08-05 00:16:00,62.8,56.1,29.97,WNW,296,0.0,0.0,79,0.00,,,0.00,meteohub,2013-08-05 05:16:00,
2013-08-05 00:21:00,62.8,56.1,29.96,WNW,296,0.0,0.0,79,0.00,,,0.00,meteohub,2013-08-05 05:21:00,
2013-08-05 00:26:00,62.8,56.5,29.96,WNW,296,0.0,0.0,80,0.00,,,0.00,meteohub,2013-08-05 05:26:00,
2013-08-05 00:31:00,62.8,56.5,29.96,WNW,297,0.0,0.0,80,0.00,,,0.00,meteohub,2013-08-05 05:31:00,
2013-08-05 00:37:00,62.8,56.5,29.96,WNW,297,0.0,0.0,80,0.00,,,0.00,meteohub,2013-08-05 05:37:00,
2013-08-05 00:42:00,63.0,56.7,29.96,WNW,296,0.0,0.0,80,0.00,,,0.00,meteohub,2013-08-05 05:42:00,
2013-08-05 00:47:00,63.0,56.7,29.95,WNW,296,0.0,0.0,80,0.00,,,0.00,meteohub,2013-08-05 05:47:00,
2013-08-05 00:52:00,63.0,56.7,29.95,WNW,297,0.0,0.0,80,0.00,,,0.00,meteohub,2013-08-05 05:52:00,
2013-08-05 00:57:00,63.0,56.7,29.95,WNW,297,0.0,0.0,80,0.00,,,0.00,meteohub,2013-08-05 05:57:00,
2013-08-05 01:02:00,63.0,56.7,29.96,WNW,296,0.0,0.0,80,0.00,,,0.00,meteohub,2013-08-05 06:02:00,
2013-08-05 01:06:00,63.0,56.7,29.96,WNW,294,0.0,1.0,80,0.00,,,0.00,meteohub,2013-08-05 06:06:00,
2013-08-05 01:12:00,63.1,56.5,29.96,WNW,294,0.0,1.0,79,0.00,,,0.00,meteohub,2013-08-05 06:12:00,
2013-08-05 01:17:00,63.1,56.5,29.96,WNW,294,0.0,1.0,79,0.00,,,0.00,meteohub,2013-08-05 06:17:00,
2013-08-05 01:22:00,63.1,56.5,29.96,WNW,294,0.0,1.0,79,0.00,,,0.00,meteohub,2013-08-05 06:22:00,
2013-08-05 01:27:00,63.3,56.7,29.96,WNW,294,0.0,0.0,79,0.00,,,0.00,meteohub,2013-08-05 06:27:00,
2013-08-05 01:32:00,63.3,56.7,29.95,WNW,294,0.0,0.0,79,0.00,,,0.00,meteohub,2013-08-05 06:32:00,
2013-08-05 01:37:00,63.5,56.8,29.94,WNW,294,0.0,0.0,79,0.00,,,0.00,meteohub,2013-08-05 06:37:00,
2013-08-05 01:42:00,63.7,56.7,29.94,WNW,294,0.0,0.0,78,0.00,,,0.00,meteohub,2013-08-05 06:42:00,
2013-08-05 01:47:00,63.9,56.8,29.94,WNW,294,0.0,1.0,78,0.00,,,0.00,meteohub,2013-08-05 06:47:00,
2013-08-05 01:53:00,64.0,56.7,29.94,WNW,303,0.0,1.0,77,0.00,,,0.00,meteohub,2013-08-05 06:53:00,
2013-08-05 01:58:00,64.0,56.7,29.95,NW,315,0.0,2.0,77,0.00,,,0.00,meteohub,2013-08-05 06:58:00,
2013-08-05 02:03:00,64.2,56.8,29.96,NW,315,0.0,2.0,77,0.00,,,0.00,meteohub,2013-08-05 07:03:00,
2013-08-05 02:08:00,64.2,56.8,29.96,NW,315,0.0,1.0,77,0.00,,,0.00,meteohub,2013-08-05 07:08:00,
2013-08-05 02:13:00,64.4,56.7,29.96,NW,313,2.0,2.0,76,0.00,,,0.00,meteohub,2013-08-05 07:13:00,
2013-08-05 02:18:00,64.6,57.2,29.96,NW,309,0.0,1.0,77,0.00,,,0.00,meteohub,2013-08-05 07:18:00,
2013-08-05 02:23:00,64.6,57.2,29.97,NW,309,0.0,3.0,77,0.00,,,0.00,meteohub,2013-08-05 07:23:00,
2013-08-05 02:28:00,64.8,57.7,29.98,NW,309,0.0,3.0,78,0.01,,,0.01,meteohub,2013-08-05 07:28:00,
2013-08-05 02:33:00,64.8,58.1,29.99,NW,309,0.0,1.0,79,0.01,,,0.01,meteohub,2013-08-05 07:33:00,
2013-08-05 02:39:00,64.8,58.5,29.99,NW,309,0.0,0.0,80,0.03,,,0.03,meteohub,2013-08-05 07:39:00,
2013-08-05 02:44:00,64.4,58.1,29.99,North,5,0.0,0.0,80,0.04,,,0.04,meteohub,2013-08-05 07:44:00,
2013-08-05 02:49:00,64.0,58.1,29.99,North,0,0.0,1.0,81,0.06,,,0.06,meteohub,2013-08-05 07:49:00,
2013-08-05 02:54:00,63.9,57.9,29.99,North,0,0.0,1.0,81,0.09,,,0.09,meteohub,2013-08-05 07:54:00,
2013-08-05 02:59:00,63.7,57.7,29.99,North,5,0.0,1.0,81,0.11,,,0.11,meteohub,2013-08-05 07:59:00,
2013-08-05 03:04:00,63.5,57.9,29.99,North,0,0.0,0.0,82,0.16,,,0.16,meteohub,2013-08-05 08:04:00,
2013-08-05 03:09:00,63.3,57.7,30.00,North,5,0.0,0.0,82,0.18,,,0.18,meteohub,2013-08-05 08:09:00,
2013-08-05 03:15:00,63.1,57.6,30.00,North,5,0.0,0.0,82,0.22,,,0.22,meteohub,2013-08-05 08:15:00,
2013-08-05 03:20:00,63.0,57.7,30.00,North,0,0.0,0.0,83,0.34,,,0.34,meteohub,2013-08-05 08:20:00,
2013-08-05 03:25:00,63.0,57.7,29.99,North,5,0.0,0.0,83,0.38,,,0.39,meteohub,2013-08-05 08:25:00,
2013-08-05 03:30:00,62.8,57.6,29.99,North,5,0.0,0.0,83,0.46,,,0.48,meteohub,2013-08-05 08:30:00,
2013-08-05 03:35:00,62.6,57.4,29.99,North,5,0.0,0.0,83,0.50,,,0.53,meteohub,2013-08-05 08:35:00,
2013-08-05 03:40:00,62.4,57.6,29.97,North,5,0.0,0.0,84,0.55,,,0.59,meteohub,2013-08-05 08:40:00,
2013-08-05 03:46:00,62.4,57.6,29.96,North,0,0.0,0.0,84,0.58,,,0.65,meteohub,2013-08-05 08:46:00,
2013-08-05 03:51:00,62.4,57.9,29.94,North,5,0.0,0.0,85,0.58,,,0.68,meteohub,2013-08-05 08:51:00,
2013-08-05 03:56:00,62.4,57.9,29.92,North,5,0.0,0.0,85,0.59,,,0.71,meteohub,2013-08-05 08:56:00,
2013-08-05 04:02:00,62.4,57.9,29.89,North,5,0.0,0.0,85,0.56,,,0.73,meteohub,2013-08-05 09:02:00,
2013-08-05 04:07:00,62.2,57.9,29.90,North,5,0.0,0.0,86,0.54,,,0.74,meteohub,2013-08-05 09:07:00,
2013-08-05 04:12:00,62.1,57.7,29.90,North,5,0.0,0.0,86,0.52,,,0.76,meteohub,2013-08-05 09:12:00,
2013-08-05 04:17:00,62.1,58.1,29.90,North,5,0.0,0.0,87,0.45,,,0.76,meteohub,2013-08-05 09:17:00,
2013-08-05 04:23:00,61.9,57.9,29.91,North,5,0.0,0.0,87,0.40,,,0.76,meteohub,2013-08-05 09:23:00,
2013-08-05 04:28:00,61.9,57.9,29.91,North,0,0.0,0.0,87,0.35,,,0.76,meteohub,2013-08-05 09:28:00,
2013-08-05 04:33:00,61.9,57.9,29.91,WNW,294,1.0,0.0,87,0.26,,,0.76,meteohub,2013-08-05 09:33:00,
2013-08-05 04:38:00,61.9,57.9,29.91,WNW,302,0.0,3.0,87,0.20,,,0.76,meteohub,2013-08-05 09:38:00,
2013-08-05 04:43:00,61.9,58.3,29.90,WNW,302,0.0,3.0,88,0.16,,,0.76,meteohub,2013-08-05 09:43:00,
2013-08-05 04:48:00,61.9,58.3,29.89,WNW,302,0.0,3.0,88,0.10,,,0.76,meteohub,2013-08-05 09:48:00,
2013-08-05 04:53:00,61.9,58.3,29.90,NW,308,0.0,1.0,88,0.07,,,0.76,meteohub,2013-08-05 09:53:00,
2013-08-05 05:01:00,61.9,58.3,29.90,NW,308,0.0,1.0,88,0.04,,,0.77,meteohub,2013-08-05 10:01:00,
2013-08-05 05:06:00,61.9,58.6,29.89,NW,307,0.0,1.0,89,0.03,,,0.77,meteohub,2013-08-05 10:06:00,
2013-08-05 05:11:00,61.9,58.6,29.88,NW,308,0.0,1.0,89,0.01,,,0.77,meteohub,2013-08-05 10:11:00,
2013-08-05 05:16:00,61.9,58.6,29.88,NW,307,0.0,1.0,89,0.01,,,0.77,meteohub,2013-08-05 10:16:00,
2013-08-05 05:21:00,61.9,58.6,29.89,NW,307,0.0,1.0,89,0.01,,,0.77,meteohub,2013-08-05 10:21:00,
2013-08-05 05:27:00,61.9,58.6,29.90,NW,312,0.0,1.0,89,0.02,,,0.78,meteohub,2013-08-05 10:27:00,
2013-08-05 05:31:00,61.9,58.6,29.89,NW,312,0.0,1.0,89,0.02,,,0.78,meteohub,2013-08-05 10:31:00,
2013-08-05 05:36:00,61.9,58.6,29.90,NW,312,0.0,1.0,89,0.02,,,0.78,meteohub,2013-08-05 10:36:00,
2013-08-05 05:41:00,61.9,58.6,29.89,NW,312,0.0,1.0,89,0.03,,,0.79,meteohub,2013-08-05 10:41:00,
2013-08-05 05:47:00,61.7,58.8,29.91,NW,311,0.0,1.0,90,0.04,,,0.80,meteohub,2013-08-05 10:47:00,
2013-08-05 05:52:00,61.7,58.8,29.91,NW,312,0.0,0.0,90,0.03,,,0.80,meteohub,2013-08-05 10:52:00,
2013-08-05 05:57:00,61.9,59.0,29.90,NW,310,0.0,0.0,90,0.04,,,0.81,meteohub,2013-08-05 10:57:00,
2013-08-05 06:02:00,61.7,58.8,29.89,NW,310,0.0,3.0,90,0.05,,,0.82,meteohub,2013-08-05 11:02:00,
2013-08-05 06:07:00,61.7,58.8,29.89,NW,310,0.0,3.0,90,0.06,,,0.83,meteohub,2013-08-05 11:07:00,
2013-08-05 06:13:00,61.7,58.8,29.89,NW,310,0.0,3.0,90,0.06,,,0.83,meteohub,2013-08-05 11:13:00,
2013-08-05 06:18:00,61.7,58.8,29.88,NW,310,0.0,0.0,90,0.06,,,0.83,meteohub,2013-08-05 11:18:00,
2013-08-05 06:23:00,61.7,58.8,29.89,NW,310,0.0,0.0,90,0.06,,,0.83,meteohub,2013-08-05 11:23:00,
2013-08-05 06:30:00,61.7,58.8,29.89,NW,310,0.0,0.0,90,0.05,,,0.83,meteohub,2013-08-05 11:30:00,
2013-08-05 06:35:00,61.7,58.8,29.88,NW,310,0.0,0.0,90,0.05,,,0.84,meteohub,2013-08-05 11:35:00,
2013-08-05 06:40:00,61.7,58.8,29.88,NW,310,0.0,0.0,90,0.05,,,0.85,meteohub,2013-08-05 11:40:00,
2013-08-05 06:45:00,61.7,58.8,29.89,NW,310,0.0,0.0,90,0.06,,,0.86,meteohub,2013-08-05 11:45:00,
2013-08-05 06:52:00,61.7,58.8,29.88,NW,310,0.0,0.0,90,0.06,,,0.87,meteohub,2013-08-05 11:52:00,
2013-08-05 06:56:00,61.9,59.0,29.89,NW,310,0.0,0.0,90,0.05,,,0.87,meteohub,2013-08-05 11:56:00,
2013-08-05 07:02:00,61.9,59.0,29.89,NW,310,0.0,0.0,90,0.04,,,0.87,meteohub,2013-08-05 12:02:00,
2013-08-05 07:07:00,61.9,59.0,29.90,NW,310,0.0,0.0,90,0.05,,,0.88,meteohub,2013-08-05 12:07:00,
2013-08-05 07:11:00,61.9,59.0,29.90,NW,310,0.0,0.0,90,0.07,,,0.90,meteohub,2013-08-05 12:11:00,
2013-08-05 07:17:00,61.9,59.0,29.89,NW,310,0.0,0.0,90,0.08,,,0.91,meteohub,2013-08-05 12:17:00,
2013-08-05 07:23:00,61.9,59.0,29.88,NW,310,0.0,0.0,90,0.10,,,0.93,meteohub,2013-08-05 12:23:00,
2013-08-05 07:28:00,62.1,59.4,29.88,NW,310,0.0,0.0,91,0.11,,,0.94,meteohub,2013-08-05 12:28:00,
2013-08-05 07:33:00,62.1,59.4,29.87,NW,310,0.0,1.0,91,0.10,,,0.94,meteohub,2013-08-05 12:33:00,
2013-08-05 07:38:00,62.1,59.4,29.88,NW,310,0.0,1.0,91,0.15,,,0.99,meteohub,2013-08-05 12:38:00,
2013-08-05 07:44:00,62.2,59.5,29.88,NW,310,0.0,1.0,91,0.14,,,1.00,meteohub,2013-08-05 12:44:00,
2013-08-05 07:49:00,62.2,59.5,29.89,NW,310,0.0,0.0,91,0.13,,,1.00,meteohub,2013-08-05 12:49:00,
2013-08-05 07:54:00,62.2,59.5,29.89,NW,310,0.0,0.0,91,0.13,,,1.00,meteohub,2013-08-05 12:54:00,
2013-08-05 08:00:00,62.4,59.7,29.88,NW,310,0.0,0.0,91,0.13,,,1.00,meteohub,2013-08-05 13:00:00,
2013-08-05 08:05:00,62.4,59.7,29.88,NW,310,0.0,0.0,91,0.13,,,1.02,meteohub,2013-08-05 13:05:00,
2013-08-05 08:10:00,62.4,59.7,29.88,NW,310,0.0,0.0,91,0.12,,,1.02,meteohub,2013-08-05 13:10:00,
2013-08-05 08:15:00,62.4,59.7,29.88,NW,310,0.0,0.0,91,0.11,,,1.03,meteohub,2013-08-05 13:15:00,
2013-08-05 08:20:00,62.6,59.9,29.87,NW,310,0.0,0.0,91,0.09,,,1.03,meteohub,2013-08-05 13:20:00,
2013-08-05 08:27:00,62.8,60.1,29.86,NW,310,0.0,0.0,91,0.09,,,1.03,meteohub,2013-08-05 13:27:00,
2013-08-05 08:32:00,62.8,60.1,29.86,NW,310,0.0,0.0,91,0.06,,,1.03,meteohub,2013-08-05 13:32:00,
2013-08-05 08:37:00,63.0,60.6,29.87,NW,310,0.0,0.0,92,0.04,,,1.03,meteohub,2013-08-05 13:37:00,
2013-08-05 08:42:00,63.0,60.6,29.87,NW,310,0.0,0.0,92,0.03,,,1.03,meteohub,2013-08-05 13:42:00,
2013-08-05 08:47:00,63.1,60.8,29.87,NW,310,0.0,0.0,92,0.03,,,1.03,meteohub,2013-08-05 13:47:00,
2013-08-05 08:54:00,63.1,60.8,29.86,NW,310,0.0,0.0,92,0.03,,,1.03,meteohub,2013-08-05 13:54:00,
2013-08-05 08:59:00,63.3,61.0,29.87,NW,310,0.0,0.0,92,0.03,,,1.03,meteohub,2013-08-05 13:59:00,
2013-08-05 09:04:00,63.3,61.0,29.87,NW,310,0.0,0.0,92,0.02,,,1.03,meteohub,2013-08-05 14:04:00,
2013-08-05 09:09:00,63.5,61.2,29.87,NW,310,0.0,0.0,92,0.01,,,1.03,meteohub,2013-08-05 14:09:00,
2013-08-05 09:14:00,63.7,61.3,29.87,NW,310,0.0,0.0,92,0.01,,,1.03,meteohub,2013-08-05 14:14:00,
2013-08-05 09:20:00,63.7,61.3,29.87,NW,310,0.0,0.0,92,0.00,,,1.03,meteohub,2013-08-05 14:20:00,
2013-08-05 09:25:00,63.9,61.5,29.86,NW,310,0.0,0.0,92,0.00,,,1.03,meteohub,2013-08-05 14:25:00,
2013-08-05 09:30:00,64.0,61.7,29.86,NW,310,0.0,0.0,92,0.00,,,1.03,meteohub,2013-08-05 14:30:00,
2013-08-05 09:36:00,64.0,61.7,29.86,NW,310,0.0,0.0,92,0.00,,,1.03,meteohub,2013-08-05 14:36:00,
2013-08-05 09:41:00,64.4,62.1,29.86,NW,310,0.0,0.0,92,0.00,,,1.03,meteohub,2013-08-05 14:41:00,
2013-08-05 09:47:00,64.6,62.2,29.86,NW,310,0.0,0.0,92,0.00,,,1.03,meteohub,2013-08-05 14:47:00,
2013-08-05 09:52:00,64.6,62.2,29.86,NW,310,0.0,0.0,92,0.00,,,1.03,meteohub,2013-08-05 14:52:00,
2013-08-05 09:57:00,64.8,62.4,29.86,NW,310,0.0,0.0,92,0.00,,,1.03,meteohub,2013-08-05 14:57:00,
2013-08-05 10:02:00,64.9,62.6,29.86,SSW,205,0.0,0.0,92,0.00,,,1.03,meteohub,2013-08-05 15:02:00,
2013-08-05 10:07:00,65.1,62.8,29.86,SSW,205,0.0,0.0,92,0.00,,,1.03,meteohub,2013-08-05 15:07:00,
2013-08-05 10:13:00,65.1,62.8,29.86,SSW,205,0.0,0.0,92,0.00,,,1.03,meteohub,2013-08-05 15:13:00,
2013-08-05 10:18:00,65.5,63.1,29.86,SSW,205,0.0,0.0,92,0.00,,,1.03,meteohub,2013-08-05 15:18:00,
2013-08-05 10:23:00,65.5,63.1,29.85,SSW,205,0.0,0.0,92,0.00,,,1.03,meteohub,2013-08-05 15:23:00,
2013-08-05 10:28:00,65.5,63.1,29.85,SSW,205,0.0,0.0,92,0.00,,,1.03,meteohub,2013-08-05 15:28:00,
2013-08-05 10:34:00,65.7,63.3,29.85,SSW,205,0.0,1.0,92,0.00,,,1.03,meteohub,2013-08-05 15:34:00,
2013-08-05 10:39:00,65.8,63.7,29.85,SSW,205,0.0,1.0,93,0.00,,,1.03,meteohub,2013-08-05 15:39:00,
2013-08-05 10:44:00,66.0,63.9,29.85,SSW,205,0.0,1.0,93,0.00,,,1.03,meteohub,2013-08-05 15:44:00,
2013-08-05 10:50:00,66.2,64.0,29.85,West,271,1.0,3.0,93,0.00,,,1.03,meteohub,2013-08-05 15:50:00,
2013-08-05 10:55:00,66.4,64.2,29.85,West,271,0.0,3.0,93,0.00,,,1.03,meteohub,2013-08-05 15:55:00,
2013-08-05 11:00:00,66.6,64.4,29.85,West,276,0.0,3.0,93,0.00,,,1.03,meteohub,2013-08-05 16:00:00,
2013-08-05 11:05:00,66.6,64.4,29.84,WNW,290,0.0,3.0,93,0.00,,,1.03,meteohub,2013-08-05 16:05:00,
2013-08-05 11:11:00,66.7,64.6,29.84,WNW,290,0.0,3.0,93,0.00,,,1.03,meteohub,2013-08-05 16:11:00,
2013-08-05 11:17:00,66.7,64.6,29.84,West,270,0.0,3.0,93,0.00,,,1.03,meteohub,2013-08-05 16:17:00,
2013-08-05 11:23:00,66.7,64.6,29.84,West,269,0.0,3.0,93,0.00,,,1.03,meteohub,2013-08-05 16:23:00,
2013-08-05 11:28:00,66.9,64.8,29.84,West,270,0.0,3.0,93,0.00,,,1.03,meteohub,2013-08-05 16:28:00,
2013-08-05 11:33:00,66.9,64.8,29.84,West,274,0.0,0.0,93,0.00,,,1.03,meteohub,2013-08-05 16:33:00,
2013-08-05 11:39:00,67.1,64.9,29.84,West,274,0.0,1.0,93,0.00,,,1.03,meteohub,2013-08-05 16:39:00,
2013-08-05 11:44:00,67.3,65.1,29.84,West,274,0.0,1.0,93,0.00,,,1.03,meteohub,2013-08-05 16:44:00,
2013-08-05 11:50:00,67.3,65.1,29.84,West,274,0.0,3.0,93,0.00,,,1.03,meteohub,2013-08-05 16:50:00,
2013-08-05 11:55:00,67.3,65.1,29.83,West,273,0.0,3.0,93,0.00,,,1.03,meteohub,2013-08-05 16:55:00,
2013-08-05 12:00:00,67.3,65.1,29.83,West,275,0.0,3.0,93,0.00,,,1.03,meteohub,2013-08-05 17:00:00,
2013-08-05 12:06:00,67.5,65.3,29.83,West,275,0.0,3.0,93,0.00,,,1.03,meteohub,2013-08-05 17:06:00,
2013-08-05 12:11:00,67.5,65.3,29.83,West,275,0.0,3.0,93,0.00,,,1.03,meteohub,2013-08-05 17:11:00,
2013-08-05 12:17:00,67.5,65.3,29.83,West,275,0.0,1.0,93,0.00,,,1.03,meteohub,2013-08-05 17:17:00,
2013-08-05 12:22:00,67.6,65.5,29.83,South,190,0.0,1.0,93,0.00,,,1.03,meteohub,2013-08-05 17:22:00,
2013-08-05 12:27:00,67.6,65.3,29.83,West,269,0.0,1.0,92,0.00,,,1.03,meteohub,2013-08-05 17:27:00,
2013-08-05 12:33:00,67.6,65.3,29.83,West,269,0.0,3.0,92,0.00,,,1.03,meteohub,2013-08-05 17:33:00,
2013-08-05 12:38:00,67.6,65.3,29.82,West,269,0.0,3.0,92,0.00,,,1.03,meteohub,2013-08-05 17:38:00,
2013-08-05 12:44:00,67.6,65.3,29.82,West,269,0.0,3.0,92,0.00,,,1.03,meteohub,2013-08-05 17:44:00,
2013-08-05 12:50:00,67.8,65.5,29.83,West,269,0.0,2.0,92,0.00,,,1.03,meteohub,2013-08-05 17:50:00,
2013-08-05 12:55:00,67.8,65.5,29.83,West,269,0.0,0.0,92,0.00,,,1.03,meteohub,2013-08-05 17:55:00,
2013-08-05 13:01:00,67.8,65.7,29.82,West,269,0.0,1.0,93,0.00,,,1.03,meteohub,2013-08-05 18:01:00,
2013-08-05 13:06:00,68.0,65.7,29.82,West,269,0.0,1.0,92,0.00,,,1.03,meteohub,2013-08-05 18:06:00,
2013-08-05 13:12:00,68.0,65.8,29.82,West,269,0.0,1.0,93,0.00,,,1.03,meteohub,2013-08-05 18:12:00,
2013-08-05 13:17:00,68.2,65.8,29.82,West,269,0.0,1.0,92,0.00,,,1.03,meteohub,2013-08-05 18:17:00,
2013-08-05 13:22:00,68.4,66.0,29.82,West,269,0.0,0.0,92,0.00,,,1.03,meteohub,2013-08-05 18:22:00,
2013-08-05 13:27:00,68.4,66.0,29.82,West,269,0.0,1.0,92,0.00,,,1.03,meteohub,2013-08-05 18:27:00,
2013-08-05 13:32:00,68.4,66.0,29.82,West,268,0.0,1.0,92,0.00,,,1.03,meteohub,2013-08-05 18:32:00,
2013-08-05 13:37:00,68.5,66.2,29.82,West,269,0.0,1.0,92,0.00,,,1.03,meteohub,2013-08-05 18:37:00,
2013-08-05 13:42:00,68.5,66.4,29.82,West,269,0.0,1.0,93,0.00,,,1.03,meteohub,2013-08-05 18:42:00,
2013-08-05 13:48:00,68.5,66.4,29.82,West,269,0.0,1.0,93,0.00,,,1.03,meteohub,2013-08-05 18:48:00,
2013-08-05 13:53:00,68.7,66.6,29.82,West,269,0.0,0.0,93,0.00,,,1.03,meteohub,2013-08-05 18:53:00,
2013-08-05 13:58:00,68.7,66.4,29.82,West,269,0.0,0.0,92,0.00,,,1.03,meteohub,2013-08-05 18:58:00,
2013-08-05 14:04:00,68.9,66.6,29.82,West,269,0.0,0.0,92,0.00,,,1.03,meteohub,2013-08-05 19:04:00,
2013-08-05 14:09:00,69.1,66.7,29.82,West,269,0.0,0.0,92,0.00,,,1.03,meteohub,2013-08-05 19:09:00,
2013-08-05 14:14:00,69.1,66.7,29.82,West,269,0.0,0.0,92,0.00,,,1.03,meteohub,2013-08-05 19:14:00,
2013-08-05 14:20:00,69.3,66.9,29.82,West,268,0.0,0.0,92,0.00,,,1.03,meteohub,2013-08-05 19:20:00,
2013-08-05 14:25:00,69.3,66.9,29.82,West,268,0.0,0.0,92,0.00,,,1.03,meteohub,2013-08-05 19:25:00,
2013-08-05 14:30:00,69.3,66.9,29.82,West,269,0.0,1.0,92,0.00,,,1.03,meteohub,2013-08-05 19:30:00,
2013-08-05 14:35:00,69.4,67.1,29.82,West,269,0.0,1.0,92,0.00,,,1.03,meteohub,2013-08-05 19:35:00,
2013-08-05 14:41:00,69.4,67.1,29.82,West,269,0.0,1.0,92,0.00,,,1.03,meteohub,2013-08-05 19:41:00,
2013-08-05 14:46:00,69.4,67.1,29.82,West,268,0.0,0.0,92,0.00,,,1.03,meteohub,2013-08-05 19:46:00,
2013-08-05 14:51:00,69.6,67.3,29.81,West,268,0.0,0.0,92,0.00,,,1.03,meteohub,2013-08-05 19:51:00,
2013-08-05 14:57:00,69.8,67.3,29.81,West,269,0.0,0.0,92,0.00,,,1.03,meteohub,2013-08-05 19:57:00,
2013-08-05 15:02:00,70.0,67.8,29.81,West,269,0.0,0.0,93,0.00,,,1.03,meteohub,2013-08-05 20:02:00,
2013-08-05 15:07:00,70.2,67.6,29.81,West,269,0.0,0.0,92,0.00,,,1.03,meteohub,2013-08-05 20:07:00,
2013-08-05 15:13:00,70.3,67.8,29.81,West,269,0.0,1.0,92,0.00,,,1.03,meteohub,2013-08-05 20:13:00,
2013-08-05 15:18:00,70.5,68.0,29.80,West,268,0.0,1.0,92,0.00,,,1.03,meteohub,2013-08-05 20:18:00,
2013-08-05 15:23:00,71.2,68.7,29.80,West,275,0.0,1.0,92,0.00,,,1.03,meteohub,2013-08-05 20:23:00,
2013-08-05 15:29:00,72.0,69.4,29.80,West,275,0.0,1.0,92,0.00,,,1.03,meteohub,2013-08-05 20:29:00,
2013-08-05 15:34:00,72.7,70.2,29.80,West,275,0.0,1.0,92,0.00,,,1.03,meteohub,2013-08-05 20:34:00,
2013-08-05 15:40:00,73.4,70.9,29.80,West,275,0.0,1.0,92,0.00,,,1.03,meteohub,2013-08-05 20:40:00,
2013-08-05 15:45:00,73.8,70.9,29.80,West,275,0.0,1.0,91,0.00,,,1.03,meteohub,2013-08-05 20:45:00,
2013-08-05 15:50:00,73.8,70.7,29.80,West,274,0.0,2.0,90,0.00,,,1.03,meteohub,2013-08-05 20:50:00,
2013-08-05 15:55:00,74.1,71.1,29.79,West,274,0.0,2.0,90,0.00,,,1.03,meteohub,2013-08-05 20:55:00,
2013-08-05 16:00:00,74.7,71.2,29.79,West,273,0.0,2.0,89,0.00,,,1.03,meteohub,2013-08-05 21:00:00,
2013-08-05 16:07:00,74.8,70.7,29.79,ESE,107,0.0,2.0,87,0.00,,,1.03,meteohub,2013-08-05 21:07:00,
2013-08-05 16:12:00,75.6,71.1,29.79,ESE,107,0.0,2.0,86,0.00,,,1.03,meteohub,2013-08-05 21:12:00,
2013-08-05 16:17:00,76.5,71.2,29.79,ESE,107,0.0,2.0,84,0.00,,,1.03,meteohub,2013-08-05 21:17:00,
2013-08-05 16:22:00,76.8,70.5,29.79,West,265,0.0,1.0,81,0.00,,,1.03,meteohub,2013-08-05 21:22:00,
2013-08-05 16:27:00,77.4,70.0,29.78,West,265,0.0,1.0,78,0.00,,,1.03,meteohub,2013-08-05 21:27:00,
2013-08-05 16:33:00,77.7,69.6,29.78,WNW,284,0.0,1.0,76,0.00,,,1.03,meteohub,2013-08-05 21:33:00,
2013-08-05 16:38:00,78.4,69.4,29.78,West,271,0.0,2.0,74,0.00,,,1.03,meteohub,2013-08-05 21:38:00,
2013-08-05 16:44:00,79.0,68.7,29.78,NNE,23,0.0,2.0,71,0.00,,,1.03,meteohub,2013-08-05 21:44:00,
2013-08-05 16:49:00,79.2,68.9,29.78,NNE,22,0.0,2.0,71,0.00,,,1.03,meteohub,2013-08-05 21:49:00,
2013-08-05 16:55:00,79.5,68.9,29.78,WNW,283,0.0,2.0,70,0.00,,,1.03,meteohub,2013-08-05 21:55:00,
2013-08-05 17:00:00,79.7,69.1,29.78,WNW,283,0.0,3.0,70,0.00,,,1.03,meteohub,2013-08-05 22:00:00,
2013-08-05 17:05:00,79.9,69.3,29.78,WNW,293,0.0,3.0,70,0.00,,,1.03,meteohub,2013-08-05 22:05:00,
2013-08-05 17:11:00,79.9,69.3,29.78,WNW,293,0.0,3.0,70,0.00,,,1.03,meteohub,2013-08-05 22:11:00,
2013-08-05 17:17:00,79.9,69.3,29.78,WNW,292,1.0,3.0,70,0.00,,,1.03,meteohub,2013-08-05 22:17:00,
2013-08-05 17:22:00,80.1,69.4,29.77,WNW,293,0.0,1.0,70,0.00,,,1.03,meteohub,2013-08-05 22:22:00,
2013-08-05 17:27:00,79.9,68.7,29.77,WNW,292,0.0,1.0,69,0.00,,,1.03,meteohub,2013-08-05 22:27:00,
2013-08-05 17:32:00,79.9,69.6,29.77,WNW,292,0.0,1.0,71,0.00,,,1.03,meteohub,2013-08-05 22:32:00,
2013-08-05 17:38:00,79.5,69.3,29.77,WNW,292,1.0,1.0,71,0.00,,,1.03,meteohub,2013-08-05 22:38:00,
2013-08-05 17:43:00,79.7,69.1,29.77,WNW,284,0.0,1.0,70,0.00,,,1.03,meteohub,2013-08-05 22:43:00,
2013-08-05 17:48:00,79.9,69.6,29.76,WNW,284,0.0,2.0,71,0.00,,,1.03,meteohub,2013-08-05 22:48:00,
2013-08-05 17:53:00,79.5,68.9,29.76,WNW,284,0.0,2.0,70,0.00,,,1.03,meteohub,2013-08-05 22:53:00,
2013-08-05 17:59:00,79.3,68.7,29.77,WNW,284,0.0,2.0,70,0.00,,,1.03,meteohub,2013-08-05 22:59:00,
2013-08-05 18:04:00,79.2,68.9,29.77,WNW,284,0.0,1.0,71,0.00,,,1.03,meteohub,2013-08-05 23:04:00,
2013-08-05 18:09:00,79.0,69.3,29.76,WNW,284,0.0,1.0,72,0.00,,,1.03,meteohub,2013-08-05 23:09:00,
2013-08-05 18:14:00,78.6,69.3,29.77,WNW,284,0.0,0.0,73,0.00,,,1.03,meteohub,2013-08-05 23:14:00,
2013-08-05 18:20:00,78.4,69.1,29.76,WNW,284,0.0,0.0,73,0.00,,,1.03,meteohub,2013-08-05 23:20:00,
2013-08-05 18:25:00,78.1,68.7,29.76,WNW,284,0.0,0.0,73,0.00,,,1.03,meteohub,2013-08-05 23:25:00,
2013-08-05 18:30:00,77.7,68.7,29.76,WNW,284,0.0,0.0,74,0.00,,,1.03,meteohub,2013-08-05 23:30:00,
2013-08-05 18:36:00,77.5,68.9,29.75,WNW,284,0.0,0.0,75,0.00,,,1.03,meteohub,2013-08-05 23:36:00,
2013-08-05 18:41:00,77.4,68.9,29.76,WNW,284,0.0,0.0,75,0.00,,,1.03,meteohub,2013-08-05 23:41:00,
2013-08-05 18:47:00,77.2,69.1,29.76,WNW,284,0.0,0.0,76,0.00,,,1.03,meteohub,2013-08-05 23:47:00,
2013-08-05 18:52:00,77.0,69.3,29.76,WNW,284,0.0,0.0,77,0.00,,,1.03,meteohub,2013-08-05 23:52:00,
2013-08-05 18:57:00,76.8,69.1,29.76,WNW,284,0.0,0.0,77,0.00,,,1.03,meteohub,2013-08-05 23:57:00,
2013-08-05 19:02:00,76.6,68.9,29.76,WNW,284,0.0,0.0,77,0.00,,,1.03,meteohub,2013-08-06 00:02:00,
2013-08-05 19:07:00,76.5,68.4,29.76,WNW,284,0.0,1.0,76,0.00,,,0.00,meteohub,2013-08-06 00:07:00,
2013-08-05 19:12:00,76.3,68.2,29.75,WNW,284,0.0,1.0,76,0.00,,,0.00,meteohub,2013-08-06 00:12:00,
2013-08-05 19:17:00,76.3,67.8,29.75,WNW,290,0.0,1.0,75,0.00,,,0.00,meteohub,2013-08-06 00:17:00,
2013-08-05 19:22:00,76.3,67.5,29.76,WNW,290,0.0,1.0,74,0.00,,,0.00,meteohub,2013-08-06 00:22:00,
2013-08-05 19:27:00,76.1,66.7,29.75,WNW,290,0.0,1.0,73,0.00,,,0.00,meteohub,2013-08-06 00:27:00,
2013-08-05 19:32:00,76.3,66.9,29.75,WNW,290,0.0,1.0,73,0.00,,,0.00,meteohub,2013-08-06 00:32:00,
2013-08-05 19:37:00,76.3,66.9,29.75,WNW,290,0.0,1.0,73,0.00,,,0.00,meteohub,2013-08-06 00:37:00,
2013-08-05 19:42:00,76.3,67.5,29.75,WNW,290,0.0,1.0,74,0.00,,,0.00,meteohub,2013-08-06 00:42:00,
2013-08-05 19:47:00,76.3,67.5,29.75,WNW,290,0.0,0.0,74,0.00,,,0.00,meteohub,2013-08-06 00:47:00,
2013-08-05 19:52:00,76.1,67.3,29.75,WNW,290,0.0,0.0,74,0.00,,,0.00,meteohub,2013-08-06 00:52:00,
2013-08-05 19:57:00,75.9,67.1,29.75,WNW,290,0.0,0.0,74,0.00,,,0.00,meteohub,2013-08-06 00:57:00,
2013-08-05 20:03:00,75.7,66.9,29.75,WNW,290,0.0,1.0,74,0.00,,,0.00,meteohub,2013-08-06 01:03:00,
2013-08-05 20:09:00,75.6,66.7,29.75,WNW,290,0.0,1.0,74,0.00,,,0.00,meteohub,2013-08-06 01:09:00,
2013-08-05 20:14:00,75.2,66.4,29.75,WNW,290,0.0,1.0,74,0.00,,,0.00,meteohub,2013-08-06 01:14:00,
2013-08-05 20:19:00,75.0,66.6,29.75,WNW,290,0.0,0.0,75,0.00,,,0.00,meteohub,2013-08-06 01:19:00,
2013-08-05 20:24:00,74.7,66.2,29.75,WNW,290,0.0,0.0,75,0.00,,,0.00,meteohub,2013-08-06 01:24:00,
2013-08-05 20:30:00,74.5,66.0,29.75,WNW,290,0.0,0.0,75,0.00,,,0.00,meteohub,2013-08-06 01:30:00,
2013-08-05 20:35:00,74.1,66.0,29.75,WNW,290,0.0,0.0,76,0.00,,,0.00,meteohub,2013-08-06 01:35:00,
2013-08-05 20:40:00,73.8,65.7,29.76,WNW,290,0.0,0.0,76,0.00,,,0.00,meteohub,2013-08-06 01:40:00,
2013-08-05 20:45:00,73.6,65.5,29.76,WNW,290,0.0,0.0,76,0.00,,,0.00,meteohub,2013-08-06 01:45:00,
2013-08-05 20:50:00,73.2,65.1,29.76,WNW,290,0.0,0.0,76,0.00,,,0.00,meteohub,2013-08-06 01:50:00,
2013-08-05 20:55:00,73.0,64.9,29.76,WNW,290,0.0,0.0,76,0.00,,,0.00,meteohub,2013-08-06 01:55:00,
2013-08-05 21:01:00,72.9,65.3,29.77,WNW,290,0.0,0.0,77,0.00,,,0.00,meteohub,2013-08-06 02:01:00,
2013-08-05 21:06:00,72.9,65.3,29.77,WNW,290,0.0,0.0,77,0.00,,,0.00,meteohub,2013-08-06 02:06:00,
2013-08-05 21:11:00,72.7,65.1,29.77,WNW,290,0.0,0.0,77,0.00,,,0.00,meteohub,2013-08-06 02:11:00,
2013-08-05 21:16:00,72.3,64.8,29.77,WNW,290,0.0,0.0,77,0.00,,,0.00,meteohub,2013-08-06 02:16:00,